Newburgh, NY

1:24 AM EDT on March 27, 2017 (GMT -0400)
Stewart International

Weather History for KSWF - December, 2012

Change the Weather History Date:

Tuesday, December 4, 2012

  Actual Average Record
Temperature  
Mean Temperature 46 °F -  
Max Temperature 59 °F 41 °F 69 °F (1998)
Min Temperature 33 °F 25 °F 1 °F (1976)
Degree Days  
Heating Degree Days 19    
Moisture  
Dew Point 46 °F    
Average Humidity 93    
Maximum Humidity 100    
Minimum Humidity 82    
Precipitation  
Precipitation 0.00 in - - ()
Sea Level Pressure  
Sea Level Pressure 30.18 in    
Wind  
Wind Speed 2 mph (North)    
Max Wind Speed 7 mph    
Max Gust Speed -    
Visibility 6 miles    
Events Rain    
Averages and records for this station are not official NWS values.
T = Trace of Precipitation, MM = Missing Value Source: NWS Daily Summary

Daily Weather History Graph

Daily Weather History Graph

Search for Another Location

Airport or City:

Trip Planner

Search our weather history database for the weather conditions in past years. The results will help you decide how hot, cold, wet, or windy it might be!

Date:

Astronomy

Dec. 04, 2012 Rise Set
Actual Time 7:06 AM EST 4:26 PM EST
Civil Twilight 6:35 AM EST 4:57 PM EST
Nautical Twilight 6:01 AM EST 5:32 PM EST
Astronomical Twilight 5:27 AM EST 6:05 PM EST
Moon 10:14 PM EST (12/4) 10:57 AM EST (12/4)
Length of Visible Light 10h 21m
Length of Day
9h 19m
Waning Gibbous, 69% of the Moon is Illuminated
Dec 4
Waning Gibbous
Dec 6
Last Quarter
Dec 13
New
Dec 20
First Quarter
Dec 28
Full

Hourly Weather History & Observations

Time (EST) Temp. Windchill Dew Point Humidity Pressure Visibility Wind Dir Wind Speed Gust Speed Precip Events Conditions
12:45 AM 33.8 °F - 33.8 °F 100% 30.28 in 10.0 mi Calm Calm - N/A   Scattered Clouds
2:45 AM 37.4 °F 34.9 °F 37.4 °F 100% 30.28 in 8.0 mi Variable 3.5 mph - N/A   Overcast
3:45 AM 41.0 °F - 39.2 °F 93% 30.26 in 8.0 mi Calm Calm - N/A   Overcast
4:50 AM 41.0 °F - 39.2 °F 93% 30.27 in 6.0 mi Calm Calm - N/A   Overcast
5:45 AM 42.8 °F - 41.0 °F 93% 30.26 in 6.0 mi Calm Calm - N/A Rain Light Rain
6:45 AM 42.8 °F - 42.8 °F 100% 30.26 in 6.0 mi Calm Calm - N/A Rain Light Rain
8:45 AM 46.4 °F 45.2 °F 44.6 °F 93% 30.26 in 4.0 mi Variable 3.5 mph - N/A Rain Light Rain
9:45 AM 46.4 °F 45.2 °F 44.6 °F 93% 30.26 in 3.0 mi Variable 3.5 mph - N/A   Overcast
10:45 AM 46.4 °F - 44.6 °F 93% 30.24 in 3.0 mi Calm Calm - N/A   Overcast
11:45 AM 51.8 °F - 48.2 °F 88% 30.21 in 3.0 mi Calm Calm - N/A   Overcast
12:45 PM 53.6 °F - 50.0 °F 88% 30.19 in 5.0 mi Calm Calm - N/A   Mostly Cloudy
1:45 PM 53.6 °F - 50.0 °F 88% 30.16 in 5.0 mi Variable 4.6 mph - N/A   Mostly Cloudy
2:45 PM 59.0 °F - 53.6 °F 82% 30.13 in 6.0 mi Variable 4.6 mph - N/A   Scattered Clouds
3:45 PM 55.4 °F - 51.8 °F 88% 30.13 in 6.0 mi Variable 5.8 mph - N/A   Scattered Clouds
4:45 PM 53.6 °F - 50.0 °F 88% 30.11 in 6.0 mi Variable 4.6 mph - N/A   Scattered Clouds
5:50 PM 53.6 °F - 51.8 °F 94% 30.08 in 6.0 mi Variable 5.8 mph - N/A   Scattered Clouds
6:45 PM 55.4 °F - 51.8 °F 88% 30.07 in 6.0 mi Variable 6.9 mph - N/A   Scattered Clouds
7:49 PM 48.2 °F - 46.4 °F 93% 30.05 in 5.0 mi Variable 5.8 mph - N/A   Scattered Clouds
8:45 PM 44.6 °F 41.4 °F 44.6 °F 100% 30.04 in 4.0 mi Variable 5.8 mph - N/A   Clear
9:45 PM 48.2 °F - 48.2 °F 100% 30.02 in 4.0 mi Variable 5.8 mph - N/A   Scattered Clouds